GW4193 Weather Reports


time (UTC)temp
C
wind
direction
speed
KPH
gust
KPH
rain 1hr
cm
rain 24hr
cm
rain mn
cm
humidity
%
barometer
mb
20260508170006 17 202 3.2 22.5 0.00 0.00 0.00 38 1015.8
20260508164513 18 268 11.3 20.9 0.00 0.00 0.00 38 1016.2
20260508163028 17 124 3.2 17.7 0.00 0.00 0.00 39 1016.4
20260508161522 17 184 3.2 12.9 0.00 0.00 0.00 39 1016.8
20260508160006 17 195 6.4 11.3 0.00 0.00 0.00 45 1017.0
20260508154532 16 202 1.6 9.7 0.00 0.00 0.00 49 1017.2
20260508153016 16 275 0.0 11.3 0.00 0.00 0.00 52 1017.2
20260508151522 15 219 6.4 11.3 0.00 0.00 0.00 52 1017.2
20260508150033 15 307 9.7 16.1 0.00 0.00 0.00 49 1017.1
20260508144510 14 207 1.6 6.4 0.00 0.00 0.00 51 1017.1
20260508143014 13 263 1.6 6.4 0.00 0.00 0.00 53 1017.1
20260508141526 12 212 3.2 6.4 0.00 0.00 0.00 56 1017.0
20260508140026 12 191 3.2 9.7 0.00 0.00 0.00 58 1017.2
20260508134526 11 210 4.8 16.1 0.00 0.00 0.00 60 1017.1
20260508133010 10 209 4.8 11.3 0.00 0.00 0.00 64 1017.2
20260508131516 9 214 3.2 9.7 0.00 0.00 0.00 67 1017.2
20260508130025 9 188 4.8 9.7 0.00 0.00 0.00 69 1017.4
20260508124533 8 179 3.2 9.7 0.00 0.00 0.00 72 1017.4
20260508123043 7 199 1.6 4.8 0.00 0.00 0.00 78 1017.2
20260508121530 6 201 3.2 8.0 0.00 0.00 0.00 81 1017.1
20260508120017 6 129 0.0 3.2 0.00 0.00 0.00 84 1017.1
20260508114520 5 357 0.0 3.2 0.00 0.00 0.00 88 1017.0
20260508113025 4 320 0.0 0.0 0.00 0.00 0.00 92 1017.0
20260508111534 3 321 0.0 0.0 0.00 0.00 0.00 92 1016.6
20260508110019 3 320 0.0 0.0 0.00 0.00 0.00 92 1016.5
20260508104520 3 320 0.0 0.0 0.00 0.00 0.00 92 1016.3
20260508103022 2 320 0.0 0.0 0.00 0.00 0.00 93 1016.1
20260508101526 2 320 0.0 0.0 0.00 0.00 0.00 93 1016.2
20260508100030 2 345 0.0 0.0 0.00 0.00 0.00 93 1016.0
20260508094519 2 345 0.0 0.0 0.00 0.00 0.00 93 1016.1
20260508093022 2 345 0.0 0.0 0.00 0.00 0.00 93 1016.1
20260508091507 2 345 0.0 0.0 0.00 0.00 0.00 93 1016.1
20260508090023 2 345 0.0 0.0 0.00 0.00 0.00 93 1016.0
20260508084514 2 345 0.0 0.0 0.00 0.00 0.00 93 1015.9
20260508083020 2 345 0.0 0.0 0.00 0.00 0.00 93 1015.9
20260508081504 2 345 0.0 0.0 0.00 0.00 0.00 92 1015.9
20260508080007 3 345 0.0 0.0 0.00 0.00 0.00 92 1015.9
20260508074512 3 345 0.0 0.0 0.00 0.00 0.00 92 1016.0
20260508073016 3 345 0.0 0.0 0.00 0.00 0.00 92 1015.9
20260508071526 3 345 0.0 0.0 0.00 0.00 0.00 92 1015.9
20260508070023 3 345 0.0 0.0 0.00 0.00 0.00 92 1015.9
20260508064511 3 345 0.0 0.0 0.00 0.00 0.00 92 1015.9
20260508063012 3 345 0.0 0.0 0.00 0.00 0.00 91 1015.9
20260508061522 3 345 0.0 0.0 0.00 0.00 0.00 91 1016.1
20260508060025 3 345 0.0 0.0 0.00 0.00 0.00 91 1016.3
20260508054526 4 345 0.0 0.0 0.00 0.00 0.00 90 1016.3
20260508053016 4 345 0.0 0.0 0.00 0.00 0.00 90 1016.2
20260508051517 4 345 0.0 0.0 0.00 0.00 0.00 89 1016.1
20260508050019 5 345 0.0 3.2 0.00 0.00 0.00 88 1015.9
20260508044522 5 345 0.0 0.0 0.00 0.00 0.00 87 1016.0
20260508043026 5 345 0.0 0.0 0.00 0.00 0.00 86 1016.0
20260508041511 6 345 0.0 0.0 0.00 0.00 0.00 85 1016.0
20260508040020 6 345 0.0 0.0 0.00 0.00 0.00 83 1016.1
20260508034536 6 345 0.0 0.0 0.00 0.00 0.00 80 1016.1
20260508033026 7 345 0.0 0.0 0.00 0.00 0.00 76 1016.1
20260508031534 7 345 0.0 0.0 0.00 0.00 0.00 66 1016.0
20260508030017 8 345 0.0 0.0 0.00 0.00 0.00 67 1016.0
20260508024545 8 345 0.0 0.0 0.00 0.00 0.00 64 1015.7
20260508023023 8 345 0.0 0.0 0.00 0.00 0.00 63 1015.5
20260508021528 9 345 0.0 0.0 0.00 0.00 0.00 55 1015.3
20260508020012 10 345 0.0 0.0 0.00 0.00 0.00 54 1015.3
20260508014522 10 345 0.0 3.2 0.00 0.00 0.00 58 1015.0
20260508013003 11 345 0.0 0.0 0.00 0.00 0.00 46 1014.9
20260508011507 11 345 0.0 0.0 0.00 0.00 0.00 47 1014.6
20260508010012 12 345 0.0 3.2 0.00 0.00 0.00 43 1014.5
20260508004539 12 345 0.0 0.0 0.00 0.00 0.00 42 1014.4
20260508003018 13 345 0.0 0.0 0.00 0.00 0.00 43 1014.3
20260508001512 14 345 0.0 0.0 0.00 0.00 0.00 43 1014.3
20260508000005 15 345 0.0 3.2 0.00 0.03 0.00 41 1014.2
20260507234511 15 340 0.0 11.3 0.00 0.03 0.00 39 1013.9
20260507233017 15 342 0.0 4.8 0.00 0.03 0.00 37 1013.6
20260507231523 16 316 1.6 8.0 0.00 0.03 0.00 39 1013.6
20260507230021 16 328 3.2 11.3 0.00 0.03 0.00 35 1013.5
20260507224510 17 288 1.6 4.8 0.00 0.03 0.00 38 1013.7
20260507223011 17 179 0.0 6.4 0.00 0.05 0.00 40 1013.6
20260507221518 17 236 1.6 11.3 0.00 0.05 0.00 37 1013.5
20260507220024 17 360 1.6 11.3 0.00 0.05 0.00 38 1013.2
20260507214506 17 243 1.6 12.9 0.00 0.05 0.00 36 1013.1
20260507213016 17 246 3.2 14.5 0.00 0.05 0.00 36 1013.0
20260507211514 17 359 3.2 14.5 0.00 0.05 0.00 35 1012.7
20260507210025 17 14 6.4 16.1 0.00 0.05 0.00 38 1012.7
20260507204523 18 6 6.4 9.7 0.00 0.05 0.00 36 1012.6
20260507203010 17 40 4.8 9.7 0.00 0.05 0.00 39 1012.7
20260507201511 17 27 0.0 11.3 0.00 0.05 0.00 41 1012.7
20260507200017 17 106 1.6 12.9 0.00 0.05 0.00 43 1012.8
20260507194529 17 25 1.6 9.7 0.00 0.05 0.00 48 1012.9
20260507193025 17 187 4.8 12.9 0.00 0.05 0.00 43 1012.9
20260507191515 17 13 4.8 12.9 0.00 0.05 0.00 39 1013.0
20260507190015 16 268 3.2 8.0 0.00 0.05 0.00 44 1013.1
20260507184523 16 8 4.8 9.7 0.00 0.05 0.00 49 1013.1
20260507183022 16 62 3.2 12.9 0.00 0.05 0.00 48 1013.4
20260507181525 15 27 0.0 9.7 0.00 0.05 0.00 51 1013.5
20260507180017 16 359 1.6 6.4 0.00 0.05 0.00 48 1013.6
20260507174528 15 264 4.8 14.5 0.00 0.05 0.00 54 1013.7
20260507173046 15 250 3.2 12.9 0.00 0.05 0.00 51 1013.9
20260507171528 15 58 1.6 9.7 0.00 0.08 0.00 55 1013.8